Location: Buttermere
(51.3333°N, 1.5167°W)
Time: 03:32:26
(UTC+00:00)

Cosmos 2297 Rocket - Pass Details

Date: 18 September 2020
Orbit: 838 x 845 km, 71.0° (Epoch: 18 October)

Event Time Altitude Azimuth Distance (km) Brightness Sun altitude
Rises 19:01:37 0° 251° (WSW) 3,392 6.4 -8.4°
Reaches altitude 10° 19:04:27 10° 263° (W) 2,462 5.9 -8.8°
Maximum altitude 19:09:09 26° 320° (NW) 1,599 4.4 -9.5°
Drops below altitude 10° 19:13:53 10° 16° (NNE) 2,476 4.6 -10.3°
Sets 19:16:46 0° 29° (NNE) 3,415 5.2 -10.7°
